Regional Weather Roundup
Issued by NWS

Home | Current Version | Previous Version | Graphics & Text | Print | Product List | Glossary On
Versions: 1 2 3 4 5 6 7 8 9 10 11 12 13 14 15 16 17 18 19 20 21 22 23 24 25 26 27 28 29 30 31 32 33 34 35 36 37 38 39 40 41 42 43 44 45 46 47 48 49 50
000
ASUS43 KMKX 010621
RWRWI

WISCONSIN REGIONAL WEATHER ROUNDUP
NATIONAL WEATHER SERVICE MILWAUKEE/SULLIVAN WI
100 AM CDT FRI AUG 01 2014

NOTE: "FAIR" INDICATES FEW OR NO CLOUDS BELOW 12,000 FEET WITH NO
SIGNIFICANT WEATHER AND/OR OBSTRUCTIONS TO VISIBILITY.

WIZ001-002-006>008-014>016-023>028-010700-
NORTHWEST WISCONSIN

CITY           SKY/WX    TMP DP  RH WIND       PRES   REMARKS
SUPERIOR ARPT  MOCLDY    57  56  99 CALM      30.00R FOG
6HR MIN TEMP:  54; 6HR MAX TEMP:  77;

ASHLAND        CLEAR     57  55  93 W3        30.00R
6HR MIN TEMP:  56; 6HR MAX TEMP:  75;

HAYWARD        PTCLDY    56  55  97 CALM      30.01S FOG
6HR MIN TEMP:  56; 6HR MAX TEMP:  77;

SIREN          PTCLDY    60  59  96 CALM      30.01S
6HR MIN TEMP:  60; 6HR MAX TEMP:  73;

RICE LAKE      PTCLDY    61  60  94 CALM      30.03S FOG
6HR MIN TEMP:  61; 6HR MAX TEMP:  73;

LADYSMITH      CLEAR     59  58  96 CALM      30.03S FOG
6HR MIN TEMP:  59; 6HR MAX TEMP:  72; 6HR PCP:  0.10;

EAU CLAIRE     PTCLDY    66  61  84 CALM      30.00S
6HR MIN TEMP:  65; 6HR MAX TEMP:  76;

MENOMONIE      PTCLDY    64  58  81 CALM      30.01S
6HR MIN TEMP:  64; 6HR MAX TEMP:  79;

NEW RICHMOND   CLEAR     61  57  87 CALM      30.02S
6HR MIN TEMP:  61; 6HR MAX TEMP:  78;

OSCEOLA        CLEAR     61  61  99 CALM      30.03S
6HR MIN TEMP:  60; 6HR MAX TEMP:  78;

$$

WIZ003>005-009-010-017-018-010700-
NORTH CENTRAL WISCONSIN

CITY           SKY/WX    TMP DP  RH WIND       PRES   REMARKS
WOODRUFF       CLEAR     55  45  70 CALM      30.02S
6HR MIN TEMP:  55; 6HR MAX TEMP:  77;

RHINELANDER    PTCLDY    51  51 100 CALM      30.03S FOG
6HR MIN TEMP:  52; 6HR MAX TEMP:  73;

EAGLE RIVER    PTCLDY    51  51 100 CALM      30.02R
6HR MIN TEMP:  51; 6HR MAX TEMP:  72;

LAND O LAKES   CLEAR     49  49  99 CALM      30.03S FOG
6HR MIN TEMP:  49; 6HR MAX TEMP:  71;

PHILLIPS       PTCLDY    57  57  99 CALM      30.02S FOG
6HR MIN TEMP:  57; 6HR MAX TEMP:  74;

TOMAHAWK       CLEAR     51  50  95 CALM      30.03R FOG
6HR MIN TEMP:  51; 6HR MAX TEMP:  72;

MEDFORD          N/A     56  56  99 CALM      30.03S FOG
6HR MIN TEMP:  56; 6HR MAX TEMP:  71;

MERRILL        CLEAR     57  57 100 CALM      30.02S FOG
6HR MIN TEMP:  56; 6HR MAX TEMP:  73;

$$

WIZ029-030-035-036-043>047-010700-
CENTRAL WISCONSIN

CITY           SKY/WX    TMP DP  RH WIND       PRES   REMARKS
WAUSAU         CLEAR     61  59  93 CALM      30.00S
6HR MIN TEMP:  61; 6HR MAX TEMP:  74;

MOSINEE        CLEAR     59  59 100 CALM      30.03S
MARSHFIELD     PTCLDY    65  60  84 W7        30.02S
6HR MIN TEMP:  62; 6HR MAX TEMP:  74;

STEVENS POINT  CLEAR     58  58  98 CALM      30.03S
6HR MIN TEMP:  57; 6HR MAX TEMP:  65; 6HR PCP:  0.09;

WAUPACA        CLEAR     62  59  89 CALM      30.02R
6HR MIN TEMP:  62; 6HR MAX TEMP:  75;

WAUTOMA        PTCLDY    60  58  93 CALM      30.03S
6HR MIN TEMP:  60; 6HR MAX TEMP:  81;

WISC RAPIDS    PTCLDY    61  59  93 CALM      30.03S
6HR MIN TEMP:  61; 6HR MAX TEMP:  78;

CAMP DOUGLAS   CLEAR     58  58 100 E2        30.03R
6HR MIN TEMP:  55; 6HR MAX TEMP:  74;

$$

WIZ011>013-019>022-031-037>040-048>050-010700-
NORTHEAST WISCONSIN

CITY           SKY/WX    TMP DP  RH WIND       PRES   REMARKS
ANTIGO         MOCLDY    54  53  96 CALM      30.03S
6HR MIN TEMP:  52; 6HR MAX TEMP:  72;

STURGEON BAY   CLEAR     59  55  88 CALM      30.00S
6HR MIN TEMP:  59; 6HR MAX TEMP:  73;

GREEN BAY      PTCLDY    62  59  90 CALM      30.01R
6HR MIN TEMP:  61; 6HR MAX TEMP:  73;

MANITOWOC      CLEAR     63  60  90 W5        30.00S
6HR MIN TEMP:  61; 6HR MAX TEMP:  66;

APPLETON       PTCLDY    63  57  82 W7        30.02S
CLINTONVILLE   CLEAR     57  55  94 CALM      30.01S
OSHKOSH        PTCLDY    65  61  87 SW3       30.01S
6HR MIN TEMP:  64; 6HR MAX TEMP:  68; 6HR PCP:  0.05;

$$

WIZ032>034-041-042-053>061-010700-
SOUTHWEST WISCONSIN

CITY           SKY/WX    TMP DP  RH WIND       PRES   REMARKS
LA CROSSE      CLEAR     67  62  84 S7        30.02S
6HR MIN TEMP:  66; 6HR MAX TEMP:  80;

SPARTA         CLEAR     56  55  97 CALM      30.04S
6HR MIN TEMP:  56; 6HR MAX TEMP:  76;

VIROQUA        FAIR      63  57  82 SW5       30.05S
6HR MIN TEMP:  62; 6HR MAX TEMP:  73;

BOSCOBEL       CLEAR     58  56  93 CALM      30.04S FOG
6HR MIN TEMP:  58; 6HR MAX TEMP:  80;

PRAIRIE DU CHI CLEAR     59  56  91 CALM      30.04S
6HR MIN TEMP:  59; 6HR MAX TEMP:  79;

PLATTEVILLE    FAIR      64  59  81 CALM      30.06S
6HR MIN TEMP:  64; 6HR MAX TEMP:  76;

$$

WIZ056-057-062-063-064-067-068-010700-
SOUTH CENTRAL WISCONSIN

CITY           SKY/WX    TMP DP  RH WIND       PRES   REMARKS
BARABOO/DELLS  CLEAR     60  57  88 CALM      30.03F
6HR MIN TEMP:  60; 6HR MAX TEMP:  77;

LONE ROCK      HAZE      61  56  83 CALM      30.04R VSB 1/2
6HR MIN TEMP:  60; 6HR MAX TEMP:  80;

WATERTOWN      CLEAR     58  57  94 CALM      30.03S
6HR MIN TEMP:  58; 6HR MAX TEMP:  76;

MADISON        CLEAR     62  58  86 CALM      30.03S
6HR MIN TEMP:  62; 6HR MAX TEMP:  79;

MIDDLETON      FAIR      58  57  94 CALM      30.04S
6HR MIN TEMP:  58; 6HR MAX TEMP:  78;

MONROE         CLEAR     63  57  82 SW8       30.05S
JANESVILLE     CLEAR     61  54  77 CALM      30.04S
$$

WIZ051-052-058>065-066-070>072-010700-
SOUTHEAST WISCONSIN

CITY           SKY/WX    TMP DP  RH WIND       PRES   REMARKS
MILWAUKEE      CLEAR     67  58  72 SW6       30.02F
6HR MIN TEMP:  67; 6HR MAX TEMP:  80;

WAUKESHA       CLEAR     63  55  77 SW3       30.04S
MILWAUKEE/TIMM CLEAR     64  55  72 CALM      30.03S
RACINE         CLEAR     66  58  75 SW6       30.05S
6HR MIN TEMP:  66; 6HR MAX TEMP:  78;

BURLINGTON     CLEAR     58  56  95 CALM      30.04S
6HR MIN TEMP:  57; 6HR MAX TEMP:  74;

KENOSHA        PTCLDY    62  58  86 W6        30.04S
6HR MIN TEMP:  61; 6HR MAX TEMP:  76;

FOND DU LAC    PTCLDY    64  59  83 SW5       30.02S
6HR MIN TEMP:  63; 6HR MAX TEMP:  78; 6HR PCP:  0.01;

SHEBOYGAN      CLEAR     63  59  87 W3        30.01S
6HR MIN TEMP:  62; 6HR MAX TEMP:  73; 6HR PCP:  0.01;

WEST BEND      PTCLDY    61  57  88 CALM      30.02F
JUNEAU         CLEAR     62  58  87 SW3       30.04S
6HR MIN TEMP:  62; 6HR MAX TEMP:  75;

$$

LSZ147-162-010700-
LAKE SUPERIOR

STATION/POSITION TIME  TEMP    WIND        PRES    WAVE
                       AIR SEA DIR/SP/G            HT/PER
                 (UTC) (F)     (DEG/KT/KT) (MB)    (FT/S)
W MID LAKE BUOY  0550   54 45  300/  4/  4 1015.1R   0
PORT WING        0540   59     190/  4/  5 1015.9R
SAXON HARBOR     0540          190/  2/  4 1015.6R
$$

LMZ867-665-643>646-010700-
LAKE MICHIGAN

STATION/POSITION TIME  TEMP    WIND        PRES    WAVE
                       AIR SEA DIR/SP/G            HT/PER
                 (UTC) (F)     (DEG/KT/KT) (MB)    (FT/S)
N MID LAKE BUOY  0550   59 54  220/  4/  8 1015.1R   1/ 4
NORTHPORT PIER   0500   63     150/  1/  3 1015.2S
SISTER BAY       0510   65     100/  8/ 11   N/A
ALGOMA LAKESHORE 0521             CALM       N/A
KEWAUNEE LAKESHO 0600   63     290/  4/  6 1015.0R
SHEBOYGAN LAKESH 0600   70     260/  8/  9 1015.9F
PORT WASHINGTON  0540   69     290/  3/  5 1016.6R
ATWATER BUOY     0600   69     250/  4     1017.4S
MILWAUKEE LAKESH 0600   71     250/  5/  6   N/A
S MID LAKE BUOY  0550   66 63  230/  8/  8 1016.8S   0
KENOSHA   LAKESH 0600   71     260/  8/ 12 1016.6S
$$

TC  - TEMPERATURE IN CELSIUS
VSB - VISIBILITY IN STATUTE MILES
WCI - WIND CHILL INDEX
HX  - HEAT INDEX




USA.gov is the U.S. government's official web portal to all federal, state and local government web resources and services.